[[{"header":{"parameterUnit":"m.s-1","parameterCategory":1,"la1":30.2991,"la2":30.254,"lo1":-89.0895,"lo2":-89.0444,"dy":0.0017,"dx":0.0017,"nx":28,"ny":28,"refTime":"2024-12-22T03:00:00:Z","depth":0,"parameterNumber":2,"parameterNumberName":"U-component_of_WINDS"},"data":[0,0,0,0,0,0,0,0,0,0,0,0,0,0,0,0,0,0,0,0,0,0,0,0,0,0,0,0,0,0,0,0,0,0,0,0,0,0,0,0,0,0,0,0,0,0,0,0,0,0,0,0,0,0,0,0,0,0,-3.0676,-3.0677,0,-3.0745,-3.0746,-3.0747,-3.0627,-3.0623,-3.0619,-3.0616,-3.0688,-3.0693,-3.0699,0,0,0,0,0,0,0,0,0,0,0,0,0,-3.0441,-3.0446,-3.0676,-3.0677,-3.0678,-3.0745,-3.0746,-3.0747,-3.0628,-3.0623,-3.0618,-3.0614,-3.0686,-3.0693,-3.07,0,0,0,0,0,0,0,0,0,0,0,0,0,-3.053,-3.0448,-3.0676,-3.0627,-3.0623,-3.0745,-3.0746,-3.0747,-3.0629,-3.0623,-3.0617,-3.0611,-3.0684,-3.0692,-3.07,-3.0874,0,0,-3.0726,-3.073,0,0,0,0,0,0,0,0,-3.0525,-3.0539,-3.0633,-3.063,-3.0626,-3.0671,-3.0689,-3.079,-3.0631,-3.0627,-3.0615,-3.0608,-3.0687,-3.0695,-3.0721,-3.0877,-3.088,-3.0727,-3.0732,-3.0736,-3.0738,0,0,0,0,0,0,0,-3.0519,-3.0535,-3.0703,-3.0634,-3.063,-3.0601,-3.0607,-3.0708,-3.069,-3.0627,-3.0618,-3.0628,-3.0684,-3.0714,-3.0722,-3.0882,-3.0727,-3.0735,-3.074,-3.0743,-3.1182,-3.1188,0,0,0,0,0,0,-3.0519,-3.0531,-3.0701,-3.0705,-3.056,-3.061,-3.0617,-3.0663,-3.0689,-3.0687,-3.0633,-3.0622,-3.0702,-3.0712,-3.0724,-3.0929,-3.0736,-3.0744,-3.0749,-3.1175,-3.1183,-3.119,0,0,0,0,0,0,-3.0515,-3.0535,-3.0698,-3.0616,-3.0634,-3.0621,-3.0674,-3.0668,-3.0697,-3.0693,-3.069,-3.0666,-3.0698,-3.0712,-3.0837,-3.093,-3.0748,-3.0756,-3.1167,-3.1178,-3.1187,-3.134,0,0,0,0,0,0,-3.0508,-3.0535,-3.0601,-3.0618,-3.0639,-3.0811,-3.0679,-3.0673,-3.0711,-3.0698,-3.0724,-3.0722,-3.0694,-3.0825,-3.0846,-3.0938,-3.0762,-3.1159,-3.1172,-3.1184,-3.1326,-3.1353,-3.1377,0,0,0,0,0,-3.05,-3.0642,-3.0605,-3.0626,-3.0722,-3.0816,-3.0828,-3.0793,-3.0719,-3.0786,-3.0783,-3.0721,-3.0916,-3.0839,-3.0861,-3.0957,-3.1153,-3.1168,-3.1183,-3.1315,-3.1348,-3.1376,0,0,0,0,0,0,-3.0636,-3.0643,-3.0602,-3.0753,-3.0785,-3.0796,-3.0879,-3.0829,-3.0883,-3.0868,-3.0821,-3.0828,-3.0963,-3.0972,-3.0886,-3.1126,-3.1022,-3.1042,-3.1115,-3.1147,-3.1171,-3.1167,-3.0769,0,0,0,0,0,-3.0684,-3.076,-3.0762,-3.0895,-3.0913,-3.0893,-3.0933,-3.0903,-3.0934,-3.0947,-3.0954,-3.0987,-3.1054,-3.1101,-3.1163,-3.1326,-3.133,-3.1403,-3.1428,-3.1449,-3.1467,-3.1553,-3.1585,-3.1238,-3.1238,-3.1238,0,0,-3.0783,-3.0796,-3.0847,-3.0922,-3.0943,-3.1023,-3.0905,-3.0995,-3.1054,-3.0961,-3.1079,-3.1085,-3.1118,-3.1263,-3.1327,-3.1275,-3.1563,-3.1468,-3.1484,-3.1491,-3.1571,-3.1604,-3.1634,-3.1248,-3.1247,-3.1245,0,0,-3.1004,-3.1022,-3.1134,-3.1157,-3.119,-3.1176,-3.1203,-3.1221,-3.1221,-3.1339,-3.127,-3.1339,-3.1458,-3.1484,-3.1513,-3.1742,-3.1687,-3.1764,-3.1896,-3.198,-3.2008,-3.2032,-3.2113,-3.2143,-3.1781,-3.1782,-3.1782,0,-3.1124,-3.1241,-3.1199,-3.1293,-3.1328,-3.1245,-3.1359,-3.1383,-3.1435,-3.1461,-3.1402,-3.1548,-3.1565,-3.1714,-3.177,-3.1796,-3.1825,-3.1762,-3.2007,-3.2031,-3.2052,-3.213,-3.2161,-3.1791,-3.179,-3.1789,-3.1788,0,-3.1386,-3.1469,-3.1556,-3.1607,-3.1651,-3.1755,-3.1728,-3.1778,-3.1743,-3.1734,-3.1855,-3.1871,-3.1935,-3.1968,-3.1935,-3.2112,-3.2079,-3.2014,-3.1909,-3.2095,-3.2167,-3.2197,-3.1804,-3.1801,-3.1798,-3.1796,0,0,-3.1698,-3.1723,-3.1755,-3.1777,-3.1806,-3.1869,-3.1968,-3.203,-3.2074,-3.2111,-3.2193,-3.2295,-3.2234,-3.2267,-3.2236,-3.231,-3.249,-3.2236,-3.2236,-3.2283,-3.2686,-3.2735,-3.277,-3.2453,-3.2458,-3.2463,-3.2683,0,-3.1918,-3.2089,-3.2053,-3.222,-3.2296,-3.2217,-3.2303,-3.233,-3.2325,-3.2387,-3.2381,-3.2454,-3.2368,-3.2387,-3.2457,-3.2454,-3.257,-3.2437,-3.2529,-3.2533,-3.2524,-3.2807,-3.286,-3.3067,-3.2711,-3.2715,-3.2719,0,-3.2199,-3.2247,-3.2422,-3.2437,-3.2467,-3.2546,-3.2599,-3.266,-3.2688,-3.2678,-3.2715,-3.2669,-3.2766,-3.2659,-3.2793,-3.2703,-3.2738,-3.2742,-3.2749,-3.2757,-3.2638,-3.2824,-3.3133,-3.3164,-3.2763,-3.2759,-3.2756,0,-3.2409,-3.2517,-3.2635,-3.2656,-3.2677,-3.2734,-3.2745,-3.2767,-3.2806,-3.2852,-3.2877,-3.2934,-3.2966,-3.3011,-3.2982,-3.2906,-3.312,-3.3011,-3.3115,-3.3116,-3.3165,-3.3163,-3.3485,-3.3187,-3.3186,-3.3186,-3.3185,0,-3.266,-3.277,-3.273,-3.2803,-3.2924,-3.288,-3.3001,-3.3003,-3.3023,-3.3095,-3.303,-3.3098,-3.3055,-3.312,-3.3097,-3.3211,-3.3226,-3.3221,-3.3214,-3.3228,-3.3228,-3.3251,-3.3236,-3.3194,-3.3192,-3.3191,-3.3189,0,-3.2916,-3.2893,-3.3017,-3.3026,-3.3031,-3.3119,-3.3127,-3.3194,-3.3183,-3.3274,-3.3293,-3.3276,-3.3349,-3.3323,-3.3402,-3.3386,-3.3531,-3.3505,-3.3522,-3.3516,-3.3622,-3.3612,-3.397,-3.4015,-3.3688,-3.3691,-3.3693,0,-3.3078,-3.3161,-3.3178,-3.3221,-3.3237,-3.3307,-3.3346,-3.3306,-3.3349,-3.3386,-3.345,-3.3516,-3.3568,-3.3688,-3.3682,-3.3741,-3.3716,-3.3837,-3.3725,-3.3736,-3.3719,-3.3714,-3.3722,-3.3861,-3.3864,-3.3868,-3.387,0,-3.3368,-3.3352,-3.3411,-3.3466,-3.3514,-3.3555,-3.359,-3.3629,-3.359,-3.3642,-3.3715,-3.3755,-3.3834,-3.3901,-3.3954,-3.3965,-3.3912,-3.3905,-3.3932,-3.3948,-3.3954,-3.3952,-3.3584,-3.3898,-3.3895,-3.3893,-3.3891,-3.389,-3.3582,-3.3652,-3.3674,-3.3741,-3.3763,-3.3797,-3.3861,-3.3857,-3.3917,-3.3978,-3.395,-3.4035,-3.4059,-3.4124,-3.4142,-3.4208,-3.4161,-3.4201,-3.4211,-3.4221,-3.4235,-3.3943,-3.4217,-3.4216,-3.4215,-3.4215,-3.4214,0,-3.3869,-3.3879,-3.3941,-3.3992,-3.4045,-3.3988,-3.4024,-3.4071,-3.4147,-3.4174,-3.4225,-3.4309,-3.4373,-3.4371,-3.4431,-3.4483,-3.446,-3.45,-3.4497,-3.45,-3.4274,-3.4244,-3.4518,-3.4518,-3.4518,-3.4518,-3.4518,-3.4518,-3.4025,-3.4139,-3.4126,-3.425,-3.4258,-3.4341,-3.4366,-3.4397,-3.4418,-3.4514,-3.4567,-3.4565,-3.458,-3.464,-3.4696,-3.4693,-3.4719,-3.4768,-3.4757,-3.4546,-3.4516,-3.4487,-3.4459,-3.4774,-3.4774,-3.4978,-3.498,-3.4981]},{"header":{"parameterUnit":"m.s-1","parameterCategory":1,"la1":30.2991,"la2":30.254,"lo1":-89.0895,"lo2":-89.0444,"dy":0.0017,"dx":0.0017,"nx":28,"ny":28,"refTime":"2024-12-22T03:00:00:Z","depth":0,"parameterNumber":3,"parameterNumberName":"V-component_of_WINDS"},"data":[0,0,0,0,0,0,0,0,0,0,0,0,0,0,0,0,0,0,0,0,0,0,0,0,0,0,0,0,0,0,0,0,0,0,0,0,0,0,0,0,0,0,0,0,0,0,0,0,0,0,0,0,0,0,0,0,0,0,-4.7752,-4.7753,0,-4.7836,-4.7837,-4.7838,-4.7778,-4.7775,-4.7772,-4.777,-4.7853,-4.7857,-4.7862,0,0,0,0,0,0,0,0,0,0,0,0,0,-4.7534,-4.7538,-4.7752,-4.7753,-4.7754,-4.7836,-4.7837,-4.7839,-4.7778,-4.7775,-4.7771,-4.7768,-4.7851,-4.7857,-4.7862,0,0,0,0,0,0,0,0,0,0,0,0,0,-4.7625,-4.754,-4.7752,-4.7734,-4.7733,-4.7836,-4.7838,-4.7839,-4.7779,-4.7775,-4.7771,-4.7767,-4.7849,-4.7856,-4.7863,-4.7987,0,0,-4.7885,-4.7888,0,0,0,0,0,0,0,0,-4.7619,-4.7633,-4.7736,-4.7735,-4.7735,-4.7792,-4.7791,-4.7888,-4.778,-4.7761,-4.777,-4.7765,-4.7836,-4.7844,-4.7868,-4.7991,-4.7995,-4.7885,-4.789,-4.7893,-4.7895,0,0,0,0,0,0,0,-4.7613,-4.7629,-4.7785,-4.7737,-4.7737,-4.772,-4.7729,-4.7809,-4.782,-4.7763,-4.7758,-4.7769,-4.7835,-4.7861,-4.787,-4.7996,-4.7885,-4.7891,-4.7896,-4.7898,-4.8222,-4.8226,0,0,0,0,0,0,-4.7609,-4.7624,-4.7783,-4.7788,-4.7666,-4.7727,-4.7737,-4.7778,-4.7819,-4.7821,-4.7773,-4.7766,-4.7851,-4.7861,-4.7872,-4.8018,-4.7892,-4.7899,-4.7903,-4.8217,-4.8223,-4.8227,0,0,0,0,0,0,-4.7605,-4.7624,-4.7779,-4.7705,-4.7723,-4.7735,-4.7782,-4.7782,-4.7809,-4.7827,-4.7828,-4.7799,-4.7849,-4.7862,-4.7959,-4.802,-4.7902,-4.7909,-4.8212,-4.8219,-4.8225,-4.8313,0,0,0,0,0,0,-4.7599,-4.7623,-4.7671,-4.7706,-4.7728,-4.7866,-4.7786,-4.7786,-4.7821,-4.7814,-4.7851,-4.7853,-4.7846,-4.7948,-4.7966,-4.8028,-4.7914,-4.8207,-4.8215,-4.8223,-4.8304,-4.8322,-4.8336,0,0,0,0,0,-4.7591,-4.7693,-4.7674,-4.7694,-4.7789,-4.787,-4.7882,-4.7873,-4.7827,-4.7874,-4.7886,-4.7852,-4.8011,-4.7959,-4.7978,-4.8043,-4.8203,-4.8213,-4.8222,-4.8297,-4.8318,-4.8336,0,0,0,0,0,0,-4.7664,-4.7697,-4.7677,-4.7793,-4.7829,-4.7859,-4.792,-4.7895,-4.7945,-4.7935,-4.7921,-4.793,-4.803,-4.8046,-4.7988,-4.8164,-4.8099,-4.8113,-4.815,-4.817,-4.8185,-4.8179,-4.792,0,0,0,0,0,-4.7694,-4.7758,-4.7783,-4.7883,-4.7902,-4.7908,-4.7943,-4.7933,-4.7969,-4.7984,-4.8002,-4.8038,-4.8095,-4.8133,-4.8188,-4.8307,-4.8312,-4.8361,-4.8376,-4.8389,-4.8401,-4.8463,-4.8484,-4.8259,-4.8259,-4.8259,0,0,-4.7755,-4.7781,-4.7823,-4.7898,-4.7925,-4.799,-4.7921,-4.7994,-4.8041,-4.7994,-4.8086,-4.8101,-4.8139,-4.8247,-4.8295,-4.8263,-4.8465,-4.8402,-4.8412,-4.8417,-4.8475,-4.8496,-4.8515,-4.8266,-4.8265,-4.8264,0,0,-4.7901,-4.7928,-4.8013,-4.8041,-4.8083,-4.8086,-4.8106,-4.814,-4.8148,-4.824,-4.8206,-4.8261,-4.8362,-4.839,-4.8417,-4.8572,-4.8542,-4.859,-4.8672,-4.8733,-4.875,-4.8766,-4.8819,-4.8838,-4.8602,-4.8602,-4.8602,0,-4.7972,-4.807,-4.806,-4.8135,-4.8167,-4.8129,-4.8213,-4.8241,-4.8298,-4.832,-4.8284,-4.8408,-4.8431,-4.8544,-4.8581,-4.8605,-4.8626,-4.8585,-4.8749,-4.8764,-4.8779,-4.8829,-4.8849,-4.8607,-4.8607,-4.8606,-4.8606,0,-4.8155,-4.8223,-4.8287,-4.8343,-4.8383,-4.8463,-4.8462,-4.8504,-4.849,-4.8496,-4.8589,-4.8615,-4.8673,-4.8699,-4.8686,-4.8809,-4.8788,-4.8751,-4.8685,-4.8806,-4.8853,-4.8872,-4.8615,-4.8613,-4.8612,-4.861,0,0,-4.8349,-4.8397,-4.8421,-4.8445,-4.8487,-4.8539,-4.8616,-4.8673,-4.8708,-4.8748,-4.881,-4.8895,-4.886,-4.8892,-4.8881,-4.8934,-4.9052,-4.889,-4.889,-4.8918,-4.9187,-4.9214,-4.9237,-4.9033,-4.9037,-4.9039,-4.9183,0,-4.8495,-4.863,-4.8622,-4.8748,-4.8809,-4.8773,-4.8839,-4.8871,-4.8878,-4.893,-4.8938,-4.8998,-4.8948,-4.8966,-4.9017,-4.9027,-4.9106,-4.9017,-4.9089,-4.9092,-4.9079,-4.9262,-4.9291,-4.9425,-4.9202,-4.9205,-4.9207,0,-4.8684,-4.8731,-4.8864,-4.8895,-4.892,-4.898,-4.9031,-4.9082,-4.9116,-4.9118,-4.9152,-4.9132,-4.9207,-4.9141,-4.9243,-4.9182,-4.9211,-4.922,-4.9225,-4.923,-4.9156,-4.927,-4.9468,-4.9488,-4.9236,-4.9234,-4.9232,0,-4.8811,-4.8907,-4.8998,-4.902,-4.9059,-4.9101,-4.9119,-4.915,-4.9184,-4.9228,-4.925,-4.9301,-4.933,-4.9369,-4.9363,-4.9316,-4.9466,-4.94,-4.9468,-4.9468,-4.9501,-4.9498,-4.9704,-4.9522,-4.9521,-4.9521,-4.9521,0,-4.8974,-4.9056,-4.9055,-4.9111,-4.92,-4.9189,-4.9278,-4.9291,-4.9318,-4.9374,-4.9345,-4.9398,-4.9388,-4.944,-4.9435,-4.9519,-4.9533,-4.9534,-4.9532,-4.9536,-4.9536,-4.9554,-4.9544,-4.9526,-4.9525,-4.9524,-4.9523,0,-4.913,-4.9133,-4.9229,-4.9258,-4.9267,-4.9332,-4.9355,-4.9407,-4.9412,-4.9483,-4.9499,-4.9506,-4.9566,-4.9564,-4.9632,-4.9629,-4.9731,-4.9719,-4.972,-4.9717,-4.9785,-4.9778,-5.0008,-5.0037,-4.9837,-4.9839,-4.9841,0,-4.9234,-4.9296,-4.9331,-4.9367,-4.9388,-4.9447,-4.9481,-4.9472,-4.9509,-4.9552,-4.9598,-4.9655,-4.9701,-4.9798,-4.9808,-4.9859,-4.9846,-4.9924,-4.9854,-4.9856,-4.9846,-4.9841,-4.9847,-4.9937,-4.9939,-4.9941,-4.9943,0,-4.9417,-4.9415,-4.9467,-4.9519,-4.9561,-4.9601,-4.9638,-4.9669,-4.9663,-4.9706,-4.9767,-4.9802,-4.9871,-4.9928,-4.9977,-4.9993,-4.9967,-4.9965,-4.9983,-4.9987,-4.9985,-4.9985,-4.9756,-4.9959,-4.9958,-4.9956,-4.9955,-4.9955,-4.9549,-4.9602,-4.9634,-4.9692,-4.9719,-4.9754,-4.9803,-4.9814,-4.9865,-4.9921,-4.9912,-4.998,-5.0011,-5.0074,-5.0094,-5.0146,-5.0119,-5.0145,-5.0152,-5.0158,-5.0165,-4.9978,-5.0155,-5.0155,-5.0154,-5.0154,-5.0154,0,-4.9729,-4.9748,-4.9802,-4.9854,-4.9899,-4.9871,-4.991,-4.9949,-5.001,-5.0041,-5.0086,-5.0155,-5.0209,-5.0224,-5.0275,-5.0314,-5.0303,-5.0327,-5.0324,-5.0328,-5.0188,-5.0166,-5.0335,-5.0335,-5.0335,-5.0335,-5.0335,-5.0335,-4.9828,-4.9915,-4.9917,-5.0016,-5.0033,-5.01,-5.0125,-5.0156,-5.018,-5.0259,-5.0304,-5.0313,-5.0337,-5.039,-5.0438,-5.044,-5.046,-5.0489,-5.0487,-5.0356,-5.0338,-5.032,-5.03,-5.0494,-5.0494,-5.0622,-5.0623,-5.0624]}]]